Regional Weather Roundup
Issued by NWS Upton, NY

Home | Current Version | Previous Version | Text Only | Print | Product List | Glossary On
Versions: 1 2 3 4 5 6 7 8 9 10 11 12 13 14 15 16 17 18 19 20 21 22 23 24 25 26 27
000
ASUS41 KOKX 280009
RWROKX

REGIONAL WEATHER ROUNDUP
NATIONAL WEATHER SERVICE NEW YORK NY
800 PM EDT SAT MAY 27 2017

NOTE: "FAIR" INDICATES FEW OR NO CLOUDS BELOW 12,000 FEET WITH NO
SIGNIFICANT WEATHER AND/OR OBSTRUCTIONS TO VISIBILITY.

NYZ071-072-176-178-NJZ106-104-280100-
NEW YORK CITY METRO AREA

CITY           SKY/WX    TMP DP  RH WIND       PRES   REMARKS
Central Park   MOCLDY    69  57  65 VRB6      29.91R
Wall St Helipt CLOUDY    70  57  64 CALM      29.89S
Bronx Bot Gard   N/A     66  54  63 CALM      29.89S
LaGuardia APRT CLOUDY    68  55  63 SE10      29.88R
Kennedy INTL   MOCLDY    64  58  80 E9        29.90R
Breezy Point     N/A     61 N/A N/A S9          N/A
Newark/Liberty MOCLDY    72  55  55 W6        29.87S
Teterboro      CLOUDY    70  56  61 E5        29.87R
$$

NYZ177-179-078>081-280100-
LONG ISLAND NEW YORK

CITY           SKY/WX    TMP DP  RH WIND       PRES   REMARKS
Jones Beach      N/A     59 N/A N/A SE6         N/A
Matinecock PT  NOT AVBL
Farmingdale    CLOUDY    61  55  81 SE8       29.91S
MacArthur/ISP  CLOUDY    61  54  77 SE9       29.91S
Shirley        CLOUDY    60  54  80 SE8       29.93S
Mt Sinai Harb    N/A    N/A N/A N/A S9          N/A
Westhampton    CLOUDY    59  49  69 S3        29.94S
East Hampton   CLOUDY    58  50  75 S3        29.92S
Montauk          N/A     59  50  72 CALM      29.94R
$$

NYZ052-065-067-280100-
HUDSON VALLEY

CITY           SKY/WX    TMP DP  RH WIND       PRES   REMARKS
White Plains   CLOUDY    64  56  75 E6        29.89S
Larchmont Harb   N/A     63 N/A N/A E12         N/A
Croton O-T Hud   N/A     66 N/A N/A E2          N/A
Newburgh       CLOUDY    66  59  77 CALM      29.90S
Montgomery     CLOUDY    66  57  72 CALM      29.88S
Poughkeepsie   CLOUDY    68  55  63 CALM      29.87S
Albany         MOCLDY    68  50  52 CALM      29.88R
$$

NJZ001-105-106-008-010-013-015-019>022-104-280100-
NEW JERSEY

CITY           SKY/WX    TMP DP  RH WIND       PRES   REMARKS
Newark/Liberty MOCLDY    72  55  55 W6        29.87S
Teterboro      CLOUDY    70  56  61 E5        29.87R
Caldwell       PTCLDY    70  55  59 CALM      29.89R
Somerville     PTCLDY    68  57  68 CALM      29.86R
Linden           N/A     71  54  54 CALM      29.88S
Perth Amboy      N/A     70 N/A N/A W5          N/A
Sussex         CLOUDY    67  59  75 CALM      29.90S
Andover          N/A     66  57  72 CALM      29.89R
Trenton        MOCLDY    72  54  53 CALM      29.87S
Millville      CLOUDY    63  63 100 S3        29.90S
Atlantic City  PTCLDY    67  58  72 SW6       29.89
Wrightstown    CLOUDY    68  57  69 S5        29.86R
Toms River     PTCLDY    67  60  78 S5        29.89S
Belmar         PTCLDY    66  58  75 SE5       29.90S
$$

PAZ047>061-062-071-280100-
EASTERN PENNSYLVANIA

CITY           SKY/WX    TMP DP  RH WIND       PRES   REMARKS
Philadelphia   PTCLDY    68  58  70 S5        29.89S
Allentown      CLOUDY    70  53  54 W3        29.87S
Scranton       CLOUDY    68  55  63 N3        29.90R
$$

CTZ002-004>006-009-010-012-RIZ004-006-007-MAZ004-011-015-280100-
SOUTHERN NEW ENGLAND
 IN CT

CITY           SKY/WX    TMP DP  RH WIND       PRES   REMARKS
Bradley INTL   CLOUDY    66  50  56 SW6       29.89R
Hartford       PTCLDY    64  54  69 S10       29.90R
Danbury        CLOUDY    61  57  87 S5        29.91R
Wtrbury/Oxford MOCLDY    61  52  72 S7        29.91S
Bridgeport     CLOUDY    63  54  72 S5        29.91R
Meriden        CLOUDY    61  53  75 S7        29.91R
New Haven      CLOUDY    60  53  77 S6        29.92R
Chester          N/A     59  54  82 SW5       29.92S
Groton         PTCLDY    59  52  77 SW6       29.91R
Wilimantic     CLOUDY    66  54  65 SW8       29.90R

 IN RI

CITY           SKY/WX    TMP DP  RH WIND       PRES   REMARKS
Providence     MOCLDY    61  54  77 S6        29.90R
Block Island   CLOUDY    58  50  75 SW10      29.93R
Westerly       PTCLDY    60  51  72 W5        29.92S
 IN MA

CITY           SKY/WX    TMP DP  RH WIND       PRES   REMARKS
Boston         MOCLDY    56  48  74 SE9       29.91R
Worcester      CLOUDY    62  51  67 W6        29.90R
Westfield      NOT AVBL
Provincetown   PTCLDY    51  46  83 S3        29.94R
Nantucket      CLOUDY    52  45  77 E3        29.93R
$$

ANZ330-335-338-340-345-350-353-355-280100-
COASTAL MARINE OBSERVATIONS


STATION/POSITION TIME  SKY/WX   TEMP    WIND        PRES    VSBY  WAVE
                                AIR SEA DIR/SP/G                  HT/PER
                 (UTC)          (F)     (DEG/KT/KT) (MB)    (MI)  (FT/S)
NY HARB ENTRANCE 2250            60 58  190/ 10/ 12 1011.9          2/ 7
20 S FIRE ISLAND 2350            59 58  140/ 10/ 12 1012.3          2/ 8
GREAT SOUTH BAY  NOT AVBL
23 SSW MONTAUK P 2250            57 57              1013.3          3/ 7
15 E BARNEGAT LI 2330               60                N/A           2/ 8
HUDSON CANYON    2250            59 59  170/  4/  6 1013.1          2/ 8
KINGS POINT      2330            65 61  190/  8/  9 1011.8
EXECUTION ROCKS  2345            65                   N/A
CENTRAL LI SOUND 2315            59     170/ 10/ 10   N/A           0
EASTERN LI SOUND NOT AVBL
ROBBINS REEF     2330            67     170/ 10/ 10 1012.1
$$


>>>>>>>>>>>>>>>>>>>>>>>>>>>> KEY <<<<<<<<<<<<<<<<<<<<<<<<<<<
>                                                          <
>     SKY/WX - Sky Condition/Present Weather               <
>     TMP    - Temperature in Fahrenheit                   <
>     DP     - Dew Point in Fahrenheit                     <
>     RH     - Relative Humidity in Percent                <
>     WIND   - Direction (from) and Speed in MPH           <
>     PRES   - Mean Sea Level Pressure (inches of Hg)      <
>     WCI    - Wind Chill Index                            <
>     VSB    - VISIBILITY IN MILES                         <
>     HX     - HEAT INDEX                                  <
>     TC     - TEMPERATURE IN CELSIUS                      <
>     VRB    - VARIABLE WIND DIRECTION                     <
>                                                          <
>>>>>>>>>>>>>>>>>>>>>>>>>>>> KEY <<<<<<<<<<<<<<<<<<<<<<<<<<<




USA.gov is the U.S. government's official web portal to all federal, state and local government web resources and services.